{"data":{"norad_id":43613,"intl_designator":"2018-070A","name":"ICESAT-2","alt_names":[],"object_type":"PAYLOAD","status":"ACTIVE","operator":null,"country":"US","launch_date":"2018-09-15","launch_site_code":"AFWTR","launch_vehicle":null,"mission":null,"orbit_class":"UNKNOWN","rcs_meters":null,"size_class":null,"mass_kg":null,"dimensions":null,"purposes":["earth_obs"],"wikipedia_slug":null,"has_3d_model":false,"image_url":null,"decayed_at":null,"tle_current":{"epoch":"2026-09-20T03:57:50.177376Z","epoch_age_seconds":50948,"freshness":"FRESH","line1":"1 43613U 18070A   26263.16516409  .00005962  00000+0  21654-3 0  9996","line2":"2 43613  92.0023 316.6286 0005968 102.4701 257.7216 15.28255516446969","mean_motion":15.28255516,"eccentricity":0.0005968,"inclination_deg":92.0023,"raan_deg":316.6286,"arg_perigee_deg":102.4701,"mean_anomaly_deg":257.7216,"bstar":0.00021654,"rev_number":44696,"period_min":94.225081141471,"perigee_km":476.93355409149,"apogee_km":485.1206523651,"semimajor_km":6859.1641032283,"source":"CELESTRAK","updated_at":"2026-09-20T09:00:33.973722Z"}}}